Multibeam Report for RR1117


Ship Name: Roger Revelle
Chief Scientist: Pinkel, Robert
Scripps Institution of Oceanography
Source Organization: Rolling Deck to Repository
Start Date: 2011-12-15
End Date: 2012-01-05


View ISO Metadata

Visit the full NCEI Bathymetry Viewer


Multibeam Bathymetry

Cruise Details

Project: Surface waves, internal waves, and the stability of the Diurnal Surface Layer
Instrument: Kongsberg EM122

Data Quality

Number of Files: 838
Number of Records: 187397
BATHYMETRY DATA Quantity Percentage
Number of Beams 80955504 100%
Number of Good Beams 71261373 88.03%
Number of Zero Beams 0 0%
Number of Flagged Beams 9694131 11.97%
AMPLITUDE DATA Quantity Percentage
Number of Beams 80955504 100%
Number of Good Beams 71261373 88.03%
Number of Zero Beams 0 0%
Number of Flagged Beams 9694131 11.97%
SIDESCAN DATA Quantity Percentage
Number of Pixels 191894528 100%
Number of Good Pixels 71998453 37.52%
Number of Zero Pixels 0 0%
Number of Flagged Pixels 119896075 62.48%

Navigation Totals

Total Time: 411.2679 hours
Total Track Length: 3281.0911 km
Average Speed: 7.978 km/hr (4.3078 knots)

Cruise Bounds

Northern Extent: 4.817476
Southern Extent: -0.095748
Western Extent: 80.49997
Eastern Extent: 90.98173

Limits

Minimum Sonar Depth 1.9361 Maximum Sonar Depth 8.5907
Minimum Altitude 2105.4297 Maximum Altitude 7859.8574
Minimum Depth 1974.2744 Maximum Depth 7905.6948
Minimum Amplitude 0 Maximum Amplitude 2.8
Minimum Sidescan 0 Maximum Sidescan 305.86

File Information

Full Resolution Bathymetry as collected (raw): 835

Files File Size Description
0000_20111216_090504_revelle.all.mb58.gz 12.35MB Kongsberg multibeam vendor format
0001_20111216_093508_revelle.all.mb58.gz 12.23MB Kongsberg multibeam vendor format
0002_20111216_100503_revelle.all.mb58.gz 12.16MB Kongsberg multibeam vendor format
0003_20111216_103504_revelle.all.mb58.gz 12.15MB Kongsberg multibeam vendor format
0004_20111216_110508_revelle.all.mb58.gz 12.02MB Kongsberg multibeam vendor format
0005_20111216_113507_revelle.all.mb58.gz 11.85MB Kongsberg multibeam vendor format
0006_20111216_120458_revelle.all.mb58.gz 11.97MB Kongsberg multibeam vendor format
0007_20111216_123509_revelle.all.mb58.gz 12.09MB Kongsberg multibeam vendor format
0008_20111216_130506_revelle.all.mb58.gz 11.95MB Kongsberg multibeam vendor format
0009_20111216_133504_revelle.all.mb58.gz 11.90MB Kongsberg multibeam vendor format
0010_20111216_140502_revelle.all.mb58.gz 11.89MB Kongsberg multibeam vendor format
0011_20111216_143503_revelle.all.mb58.gz 11.70MB Kongsberg multibeam vendor format
0012_20111216_150509_revelle.all.mb58.gz 11.50MB Kongsberg multibeam vendor format
0013_20111216_153506_revelle.all.mb58.gz 11.55MB Kongsberg multibeam vendor format
0014_20111216_160459_revelle.all.mb58.gz 11.96MB Kongsberg multibeam vendor format
0015_20111216_163507_revelle.all.mb58.gz 12.10MB Kongsberg multibeam vendor format
0016_20111216_170507_revelle.all.mb58.gz 12.24MB Kongsberg multibeam vendor format
0017_20111216_173508_revelle.all.mb58.gz 12.21MB Kongsberg multibeam vendor format
0018_20111216_180506_revelle.all.mb58.gz 12.06MB Kongsberg multibeam vendor format
0019_20111216_183505_revelle.all.mb58.gz 11.84MB Kongsberg multibeam vendor format
0020_20111216_190505_revelle.all.mb58.gz 11.54MB Kongsberg multibeam vendor format
0021_20111216_193508_revelle.all.mb58.gz 11.38MB Kongsberg multibeam vendor format
0022_20111216_200501_revelle.all.mb58.gz 11.32MB Kongsberg multibeam vendor format
0023_20111216_203510_revelle.all.mb58.gz 11.37MB Kongsberg multibeam vendor format
0024_20111216_210509_revelle.all.mb58.gz 11.51MB Kongsberg multibeam vendor format
0025_20111216_213509_revelle.all.mb58.gz 11.16MB Kongsberg multibeam vendor format
0026_20111216_220501_revelle.all.mb58.gz 11.05MB Kongsberg multibeam vendor format
0027_20111216_223501_revelle.all.mb58.gz 11.13MB Kongsberg multibeam vendor format
0028_20111216_230508_revelle.all.mb58.gz 11.14MB Kongsberg multibeam vendor format
0029_20111216_233504_revelle.all.mb58.gz 11.02MB Kongsberg multibeam vendor format
0030_20111217_000459_revelle.all.mb58.gz 11.08MB Kongsberg multibeam vendor format
0031_20111217_003509_revelle.all.mb58.gz 10.78MB Kongsberg multibeam vendor format
0032_20111217_010508_revelle.all.mb58.gz 11.01MB Kongsberg multibeam vendor format
0033_20111217_013510_revelle.all.mb58.gz 11.02MB Kongsberg multibeam vendor format
0034_20111217_020504_revelle.all.mb58.gz 10.89MB Kongsberg multibeam vendor format
0035_20111217_023500_revelle.all.mb58.gz 10.78MB Kongsberg multibeam vendor format
0036_20111217_030505_revelle.all.mb58.gz 0.67MB Kongsberg multibeam vendor format
0037_20111217_031421_revelle.all.mb58.gz 10.44MB Kongsberg multibeam vendor format
0038_20111217_034406_revelle.all.mb58.gz 9.93MB Kongsberg multibeam vendor format
0039_20111217_041423_revelle.all.mb58.gz 9.10MB Kongsberg multibeam vendor format
0040_20111217_044413_revelle.all.mb58.gz 9.17MB Kongsberg multibeam vendor format
0041_20111217_051415_revelle.all.mb58.gz 9.98MB Kongsberg multibeam vendor format
0042_20111217_054408_revelle.all.mb58.gz 10.69MB Kongsberg multibeam vendor format
0043_20111217_061415_revelle.all.mb58.gz 10.57MB Kongsberg multibeam vendor format
0044_20111217_064408_revelle.all.mb58.gz 10.68MB Kongsberg multibeam vendor format
0045_20111217_071415_revelle.all.mb58.gz 10.41MB Kongsberg multibeam vendor format
0046_20111217_074404_revelle.all.mb58.gz 10.67MB Kongsberg multibeam vendor format
0047_20111217_081412_revelle.all.mb58.gz 10.58MB Kongsberg multibeam vendor format
0048_20111217_084414_revelle.all.mb58.gz 10.56MB Kongsberg multibeam vendor format
0049_20111217_091404_revelle.all.mb58.gz 10.82MB Kongsberg multibeam vendor format
0050_20111217_094417_revelle.all.mb58.gz 10.83MB Kongsberg multibeam vendor format
0051_20111217_101415_revelle.all.mb58.gz 10.78MB Kongsberg multibeam vendor format
0052_20111217_104406_revelle.all.mb58.gz 10.86MB Kongsberg multibeam vendor format
0053_20111217_111405_revelle.all.mb58.gz 10.87MB Kongsberg multibeam vendor format
0054_20111217_114405_revelle.all.mb58.gz 10.98MB Kongsberg multibeam vendor format
0055_20111217_121415_revelle.all.mb58.gz 10.50MB Kongsberg multibeam vendor format
0056_20111217_124410_revelle.all.mb58.gz 10.51MB Kongsberg multibeam vendor format
0057_20111217_131414_revelle.all.mb58.gz 10.82MB Kongsberg multibeam vendor format
0058_20111217_134419_revelle.all.mb58.gz 10.32MB Kongsberg multibeam vendor format
0059_20111217_141408_revelle.all.mb58.gz 10.50MB Kongsberg multibeam vendor format
0060_20111217_144408_revelle.all.mb58.gz 10.47MB Kongsberg multibeam vendor format
0061_20111217_151408_revelle.all.mb58.gz 10.58MB Kongsberg multibeam vendor format
0062_20111217_154418_revelle.all.mb58.gz 10.84MB Kongsberg multibeam vendor format
0063_20111217_161410_revelle.all.mb58.gz 10.85MB Kongsberg multibeam vendor format
0064_20111217_164406_revelle.all.mb58.gz 10.93MB Kongsberg multibeam vendor format
0065_20111217_171408_revelle.all.mb58.gz 10.60MB Kongsberg multibeam vendor format
0066_20111217_174412_revelle.all.mb58.gz 10.32MB Kongsberg multibeam vendor format
0067_20111217_181408_revelle.all.mb58.gz 9.83MB Kongsberg multibeam vendor format
0068_20111217_184409_revelle.all.mb58.gz 10.23MB Kongsberg multibeam vendor format
0069_20111217_191415_revelle.all.mb58.gz 10.20MB Kongsberg multibeam vendor format
0070_20111217_194417_revelle.all.mb58.gz 10.43MB Kongsberg multibeam vendor format
0071_20111217_201415_revelle.all.mb58.gz 10.40MB Kongsberg multibeam vendor format
0072_20111217_204416_revelle.all.mb58.gz 10.59MB Kongsberg multibeam vendor format
0073_20111217_211414_revelle.all.mb58.gz 10.64MB Kongsberg multibeam vendor format
0074_20111217_214404_revelle.all.mb58.gz 10.70MB Kongsberg multibeam vendor format
0075_20111217_221411_revelle.all.mb58.gz 10.54MB Kongsberg multibeam vendor format
0076_20111217_224404_revelle.all.mb58.gz 10.42MB Kongsberg multibeam vendor format
0077_20111217_231404_revelle.all.mb58.gz 10.65MB Kongsberg multibeam vendor format
0078_20111217_234410_revelle.all.mb58.gz 10.65MB Kongsberg multibeam vendor format
0079_20111218_001413_revelle.all.mb58.gz 10.65MB Kongsberg multibeam vendor format
0080_20111218_004405_revelle.all.mb58.gz 10.84MB Kongsberg multibeam vendor format
0081_20111218_011407_revelle.all.mb58.gz 10.45MB Kongsberg multibeam vendor format
0082_20111218_014418_revelle.all.mb58.gz 10.49MB Kongsberg multibeam vendor format
0083_20111218_021407_revelle.all.mb58.gz 10.39MB Kongsberg multibeam vendor format
0084_20111218_024408_revelle.all.mb58.gz 10.43MB Kongsberg multibeam vendor format
0085_20111218_031403_revelle.all.mb58.gz 10.48MB Kongsberg multibeam vendor format
0086_20111218_034404_revelle.all.mb58.gz 10.52MB Kongsberg multibeam vendor format
0087_20111218_041409_revelle.all.mb58.gz 10.43MB Kongsberg multibeam vendor format
0088_20111218_044416_revelle.all.mb58.gz 10.19MB Kongsberg multibeam vendor format
0089_20111218_051404_revelle.all.mb58.gz 10.27MB Kongsberg multibeam vendor format
0090_20111218_054405_revelle.all.mb58.gz 10.37MB Kongsberg multibeam vendor format
0091_20111218_061408_revelle.all.mb58.gz 10.49MB Kongsberg multibeam vendor format
0092_20111218_064410_revelle.all.mb58.gz 10.51MB Kongsberg multibeam vendor format
0093_20111218_071413_revelle.all.mb58.gz 10.61MB Kongsberg multibeam vendor format
0094_20111218_074404_revelle.all.mb58.gz 10.78MB Kongsberg multibeam vendor format
0095_20111218_081414_revelle.all.mb58.gz 10.91MB Kongsberg multibeam vendor format
0096_20111218_084410_revelle.all.mb58.gz 10.71MB Kongsberg multibeam vendor format
0097_20111218_091404_revelle.all.mb58.gz 11.01MB Kongsberg multibeam vendor format
0098_20111218_094402_revelle.all.mb58.gz 10.69MB Kongsberg multibeam vendor format
0099_20111218_101408_revelle.all.mb58.gz 10.06MB Kongsberg multibeam vendor format
0100_20111218_104417_revelle.all.mb58.gz 9.67MB Kongsberg multibeam vendor format
0101_20111218_111420_revelle.all.mb58.gz 9.58MB Kongsberg multibeam vendor format
0102_20111218_114403_revelle.all.mb58.gz 9.73MB Kongsberg multibeam vendor format
0103_20111218_121410_revelle.all.mb58.gz 9.46MB Kongsberg multibeam vendor format
0104_20111218_124402_revelle.all.mb58.gz 9.38MB Kongsberg multibeam vendor format
0105_20111218_131416_revelle.all.mb58.gz 9.40MB Kongsberg multibeam vendor format
0106_20111218_134408_revelle.all.mb58.gz 10.42MB Kongsberg multibeam vendor format
0107_20111218_141410_revelle.all.mb58.gz 10.74MB Kongsberg multibeam vendor format
0108_20111218_144413_revelle.all.mb58.gz 10.67MB Kongsberg multibeam vendor format
0109_20111218_151403_revelle.all.mb58.gz 10.62MB Kongsberg multibeam vendor format
0110_20111218_154404_revelle.all.mb58.gz 10.56MB Kongsberg multibeam vendor format
0111_20111218_161410_revelle.all.mb58.gz 10.81MB Kongsberg multibeam vendor format
0112_20111218_164407_revelle.all.mb58.gz 10.71MB Kongsberg multibeam vendor format
0113_20111218_171407_revelle.all.mb58.gz 10.56MB Kongsberg multibeam vendor format
0114_20111218_174414_revelle.all.mb58.gz 10.19MB Kongsberg multibeam vendor format
0115_20111218_181408_revelle.all.mb58.gz 10.08MB Kongsberg multibeam vendor format
0116_20111218_184416_revelle.all.mb58.gz 10.35MB Kongsberg multibeam vendor format
0117_20111218_191401_revelle.all.mb58.gz 10.11MB Kongsberg multibeam vendor format
0118_20111218_194411_revelle.all.mb58.gz 10.14MB Kongsberg multibeam vendor format
0119_20111218_201408_revelle.all.mb58.gz 10.17MB Kongsberg multibeam vendor format
0120_20111218_204412_revelle.all.mb58.gz 10.08MB Kongsberg multibeam vendor format
0121_20111218_211410_revelle.all.mb58.gz 10.42MB Kongsberg multibeam vendor format
0122_20111218_214404_revelle.all.mb58.gz 10.48MB Kongsberg multibeam vendor format
0123_20111218_221401_revelle.all.mb58.gz 10.54MB Kongsberg multibeam vendor format
0124_20111218_224407_revelle.all.mb58.gz 10.02MB Kongsberg multibeam vendor format
0125_20111218_231401_revelle.all.mb58.gz 10.14MB Kongsberg multibeam vendor format
0126_20111218_234418_revelle.all.mb58.gz 10.24MB Kongsberg multibeam vendor format
0127_20111219_001412_revelle.all.mb58.gz 9.72MB Kongsberg multibeam vendor format
0128_20111219_004406_revelle.all.mb58.gz 10.37MB Kongsberg multibeam vendor format
0129_20111219_011402_revelle.all.mb58.gz 10.11MB Kongsberg multibeam vendor format
0130_20111219_014407_revelle.all.mb58.gz 9.76MB Kongsberg multibeam vendor format
0131_20111219_021401_revelle.all.mb58.gz 9.72MB Kongsberg multibeam vendor format
0132_20111219_024410_revelle.all.mb58.gz 9.57MB Kongsberg multibeam vendor format
0133_20111219_031408_revelle.all.mb58.gz 9.41MB Kongsberg multibeam vendor format
0134_20111219_034407_revelle.all.mb58.gz 9.47MB Kongsberg multibeam vendor format
0135_20111219_041403_revelle.all.mb58.gz 9.50MB Kongsberg multibeam vendor format
0136_20111219_044412_revelle.all.mb58.gz 9.34MB Kongsberg multibeam vendor format
0137_20111219_051403_revelle.all.mb58.gz 9.67MB Kongsberg multibeam vendor format
0138_20111219_054415_revelle.all.mb58.gz 9.56MB Kongsberg multibeam vendor format
0139_20111219_061413_revelle.all.mb58.gz 9.69MB Kongsberg multibeam vendor format
0140_20111219_064415_revelle.all.mb58.gz 10.05MB Kongsberg multibeam vendor format
0141_20111219_071418_revelle.all.mb58.gz 9.87MB Kongsberg multibeam vendor format
0142_20111219_074403_revelle.all.mb58.gz 9.46MB Kongsberg multibeam vendor format
0143_20111219_081408_revelle.all.mb58.gz 9.60MB Kongsberg multibeam vendor format
0144_20111219_084405_revelle.all.mb58.gz 9.63MB Kongsberg multibeam vendor format
0145_20111219_091410_revelle.all.mb58.gz 9.47MB Kongsberg multibeam vendor format
0146_20111219_094402_revelle.all.mb58.gz 9.67MB Kongsberg multibeam vendor format
0147_20111219_101413_revelle.all.mb58.gz 9.52MB Kongsberg multibeam vendor format
0148_20111219_104409_revelle.all.mb58.gz 9.45MB Kongsberg multibeam vendor format
0149_20111219_111403_revelle.all.mb58.gz 9.55MB Kongsberg multibeam vendor format
0150_20111219_114405_revelle.all.mb58.gz 9.68MB Kongsberg multibeam vendor format
0151_20111219_121405_revelle.all.mb58.gz 9.58MB Kongsberg multibeam vendor format
0152_20111219_124408_revelle.all.mb58.gz 9.41MB Kongsberg multibeam vendor format
0153_20111219_131406_revelle.all.mb58.gz 9.49MB Kongsberg multibeam vendor format
0154_20111219_134411_revelle.all.mb58.gz 9.59MB Kongsberg multibeam vendor format
0155_20111219_141416_revelle.all.mb58.gz 9.52MB Kongsberg multibeam vendor format
0156_20111219_144406_revelle.all.mb58.gz 9.56MB Kongsberg multibeam vendor format
0157_20111219_151416_revelle.all.mb58.gz 9.28MB Kongsberg multibeam vendor format
0158_20111219_154417_revelle.all.mb58.gz 9.07MB Kongsberg multibeam vendor format
0159_20111219_161404_revelle.all.mb58.gz 9.06MB Kongsberg multibeam vendor format
0160_20111219_164415_revelle.all.mb58.gz 9.01MB Kongsberg multibeam vendor format
0161_20111219_171417_revelle.all.mb58.gz 9.07MB Kongsberg multibeam vendor format
0162_20111219_174419_revelle.all.mb58.gz 9.00MB Kongsberg multibeam vendor format
0163_20111219_181407_revelle.all.mb58.gz 9.06MB Kongsberg multibeam vendor format
0164_20111219_184413_revelle.all.mb58.gz 9.01MB Kongsberg multibeam vendor format
0165_20111219_191404_revelle.all.mb58.gz 9.23MB Kongsberg multibeam vendor format
0166_20111219_194415_revelle.all.mb58.gz 9.11MB Kongsberg multibeam vendor format
0167_20111219_201409_revelle.all.mb58.gz 9.11MB Kongsberg multibeam vendor format
0168_20111219_204410_revelle.all.mb58.gz 9.16MB Kongsberg multibeam vendor format
0169_20111219_211401_revelle.all.mb58.gz 9.24MB Kongsberg multibeam vendor format
0170_20111219_214410_revelle.all.mb58.gz 9.26MB Kongsberg multibeam vendor format
0171_20111219_221407_revelle.all.mb58.gz 9.36MB Kongsberg multibeam vendor format
0172_20111219_224416_revelle.all.mb58.gz 9.40MB Kongsberg multibeam vendor format
0173_20111219_231408_revelle.all.mb58.gz 9.44MB Kongsberg multibeam vendor format
0174_20111219_234420_revelle.all.mb58.gz 9.37MB Kongsberg multibeam vendor format
0175_20111220_001414_revelle.all.mb58.gz 9.22MB Kongsberg multibeam vendor format
0176_20111220_004401_revelle.all.mb58.gz 9.22MB Kongsberg multibeam vendor format
0177_20111220_011402_revelle.all.mb58.gz 9.42MB Kongsberg multibeam vendor format
0178_20111220_014404_revelle.all.mb58.gz 9.33MB Kongsberg multibeam vendor format
0179_20111220_021403_revelle.all.mb58.gz 9.24MB Kongsberg multibeam vendor format
0180_20111220_024359_revelle.all.mb58.gz 9.36MB Kongsberg multibeam vendor format
0181_20111220_031404_revelle.all.mb58.gz 9.86MB Kongsberg multibeam vendor format
0182_20111220_034414_revelle.all.mb58.gz 9.51MB Kongsberg multibeam vendor format
0183_20111220_041411_revelle.all.mb58.gz 9.65MB Kongsberg multibeam vendor format
0184_20111220_044417_revelle.all.mb58.gz 9.40MB Kongsberg multibeam vendor format
0185_20111220_051413_revelle.all.mb58.gz 9.67MB Kongsberg multibeam vendor format
0186_20111220_054359_revelle.all.mb58.gz 9.62MB Kongsberg multibeam vendor format
0187_20111220_061407_revelle.all.mb58.gz 9.56MB Kongsberg multibeam vendor format
0188_20111220_064414_revelle.all.mb58.gz 9.31MB Kongsberg multibeam vendor format
0189_20111220_071359_revelle.all.mb58.gz 10.40MB Kongsberg multibeam vendor format
0190_20111220_074413_revelle.all.mb58.gz 9.89MB Kongsberg multibeam vendor format
0191_20111220_081416_revelle.all.mb58.gz 10.04MB Kongsberg multibeam vendor format
0192_20111220_084406_revelle.all.mb58.gz 9.69MB Kongsberg multibeam vendor format
0193_20111220_091409_revelle.all.mb58.gz 9.54MB Kongsberg multibeam vendor format
0194_20111220_094407_revelle.all.mb58.gz 9.53MB Kongsberg multibeam vendor format
0195_20111220_101415_revelle.all.mb58.gz 9.59MB Kongsberg multibeam vendor format
0196_20111220_104407_revelle.all.mb58.gz 9.42MB Kongsberg multibeam vendor format
0197_20111220_111359_revelle.all.mb58.gz 9.85MB Kongsberg multibeam vendor format
0198_20111220_114402_revelle.all.mb58.gz 9.87MB Kongsberg multibeam vendor format
0199_20111220_121413_revelle.all.mb58.gz 9.53MB Kongsberg multibeam vendor format
0200_20111220_124410_revelle.all.mb58.gz 9.49MB Kongsberg multibeam vendor format
0201_20111220_131407_revelle.all.mb58.gz 9.41MB Kongsberg multibeam vendor format
0202_20111220_134406_revelle.all.mb58.gz 9.26MB Kongsberg multibeam vendor format
0203_20111220_141358_revelle.all.mb58.gz 9.49MB Kongsberg multibeam vendor format
0204_20111220_144413_revelle.all.mb58.gz 9.52MB Kongsberg multibeam vendor format
0205_20111220_151358_revelle.all.mb58.gz 9.47MB Kongsberg multibeam vendor format
0206_20111220_154404_revelle.all.mb58.gz 9.51MB Kongsberg multibeam vendor format
0207_20111220_161407_revelle.all.mb58.gz 9.53MB Kongsberg multibeam vendor format
0208_20111220_164409_revelle.all.mb58.gz 9.52MB Kongsberg multibeam vendor format
0209_20111220_171400_revelle.all.mb58.gz 9.50MB Kongsberg multibeam vendor format
0210_20111220_174401_revelle.all.mb58.gz 9.55MB Kongsberg multibeam vendor format
0211_20111220_181415_revelle.all.mb58.gz 9.41MB Kongsberg multibeam vendor format
0212_20111220_184414_revelle.all.mb58.gz 9.44MB Kongsberg multibeam vendor format
0213_20111220_191406_revelle.all.mb58.gz 9.51MB Kongsberg multibeam vendor format
0214_20111220_194403_revelle.all.mb58.gz 9.77MB Kongsberg multibeam vendor format
0215_20111220_201413_revelle.all.mb58.gz 9.61MB Kongsberg multibeam vendor format
0216_20111220_204408_revelle.all.mb58.gz 9.74MB Kongsberg multibeam vendor format
0217_20111220_211416_revelle.all.mb58.gz 9.62MB Kongsberg multibeam vendor format
0218_20111220_214407_revelle.all.mb58.gz 9.84MB Kongsberg multibeam vendor format
0219_20111220_221401_revelle.all.mb58.gz 9.80MB Kongsberg multibeam vendor format
0220_20111220_224403_revelle.all.mb58.gz 9.79MB Kongsberg multibeam vendor format
0221_20111220_231411_revelle.all.mb58.gz 9.71MB Kongsberg multibeam vendor format
0222_20111220_234412_revelle.all.mb58.gz 9.75MB Kongsberg multibeam vendor format
0223_20111221_001410_revelle.all.mb58.gz 9.83MB Kongsberg multibeam vendor format
0224_20111221_004407_revelle.all.mb58.gz 9.90MB Kongsberg multibeam vendor format
0225_20111221_011406_revelle.all.mb58.gz 9.63MB Kongsberg multibeam vendor format
0226_20111221_014403_revelle.all.mb58.gz 9.63MB Kongsberg multibeam vendor format
0227_20111221_021409_revelle.all.mb58.gz 9.97MB Kongsberg multibeam vendor format
0228_20111221_024409_revelle.all.mb58.gz 9.81MB Kongsberg multibeam vendor format
0229_20111221_031357_revelle.all.mb58.gz 10.74MB Kongsberg multibeam vendor format
0230_20111221_034408_revelle.all.mb58.gz 10.03MB Kongsberg multibeam vendor format
0231_20111221_041412_revelle.all.mb58.gz 10.06MB Kongsberg multibeam vendor format
0232_20111221_044402_revelle.all.mb58.gz 10.55MB Kongsberg multibeam vendor format
0233_20111221_051416_revelle.all.mb58.gz 10.32MB Kongsberg multibeam vendor format
0234_20111221_054428_revelle.all.mb58.gz 10.96MB Kongsberg multibeam vendor format
0235_20111221_061426_revelle.all.mb58.gz 10.20MB Kongsberg multibeam vendor format
0236_20111221_064424_revelle.all.mb58.gz 10.44MB Kongsberg multibeam vendor format
0237_20111221_071422_revelle.all.mb58.gz 10.25MB Kongsberg multibeam vendor format
0238_20111221_074434_revelle.all.mb58.gz 10.11MB Kongsberg multibeam vendor format
0239_20111221_081428_revelle.all.mb58.gz 10.92MB Kongsberg multibeam vendor format
0240_20111221_084426_revelle.all.mb58.gz 9.60MB Kongsberg multibeam vendor format
0241_20111221_091420_revelle.all.mb58.gz 10.90MB Kongsberg multibeam vendor format
0242_20111221_094430_revelle.all.mb58.gz 11.00MB Kongsberg multibeam vendor format
0243_20111221_101418_revelle.all.mb58.gz 10.16MB Kongsberg multibeam vendor format
0244_20111221_104433_revelle.all.mb58.gz 10.34MB Kongsberg multibeam vendor format
0245_20111221_111432_revelle.all.mb58.gz 10.03MB Kongsberg multibeam vendor format
0246_20111221_114430_revelle.all.mb58.gz 10.05MB Kongsberg multibeam vendor format
0247_20111221_121436_revelle.all.mb58.gz 10.20MB Kongsberg multibeam vendor format
0248_20111221_124432_revelle.all.mb58.gz 10.20MB Kongsberg multibeam vendor format
0249_20111221_131431_revelle.all.mb58.gz 9.74MB Kongsberg multibeam vendor format
0250_20111221_134432_revelle.all.mb58.gz 9.86MB Kongsberg multibeam vendor format
0251_20111221_141423_revelle.all.mb58.gz 10.00MB Kongsberg multibeam vendor format
0252_20111221_144428_revelle.all.mb58.gz 10.23MB Kongsberg multibeam vendor format
0253_20111221_151423_revelle.all.mb58.gz 10.50MB Kongsberg multibeam vendor format
0254_20111221_154433_revelle.all.mb58.gz 9.97MB Kongsberg multibeam vendor format
0255_20111221_161435_revelle.all.mb58.gz 9.90MB Kongsberg multibeam vendor format
0256_20111221_164434_revelle.all.mb58.gz 9.88MB Kongsberg multibeam vendor format
0257_20111221_171442_revelle.all.mb58.gz 9.75MB Kongsberg multibeam vendor format
0258_20111221_174429_revelle.all.mb58.gz 9.91MB Kongsberg multibeam vendor format
0259_20111221_181433_revelle.all.mb58.gz 10.11MB Kongsberg multibeam vendor format
0260_20111221_184445_revelle.all.mb58.gz 10.24MB Kongsberg multibeam vendor format
0261_20111221_191436_revelle.all.mb58.gz 10.56MB Kongsberg multibeam vendor format
0262_20111221_194430_revelle.all.mb58.gz 10.57MB Kongsberg multibeam vendor format
0263_20111221_201428_revelle.all.mb58.gz 10.68MB Kongsberg multibeam vendor format
0264_20111221_204433_revelle.all.mb58.gz 10.83MB Kongsberg multibeam vendor format
0265_20111221_211436_revelle.all.mb58.gz 10.88MB Kongsberg multibeam vendor format
0266_20111221_214428_revelle.all.mb58.gz 10.88MB Kongsberg multibeam vendor format
0267_20111221_221426_revelle.all.mb58.gz 10.87MB Kongsberg multibeam vendor format
0268_20111221_224431_revelle.all.mb58.gz 10.76MB Kongsberg multibeam vendor format
0269_20111221_231429_revelle.all.mb58.gz 11.02MB Kongsberg multibeam vendor format
0270_20111221_234432_revelle.all.mb58.gz 10.67MB Kongsberg multibeam vendor format
0271_20111222_001431_revelle.all.mb58.gz 10.81MB Kongsberg multibeam vendor format
0272_20111222_004435_revelle.all.mb58.gz 11.21MB Kongsberg multibeam vendor format
0273_20111222_011435_revelle.all.mb58.gz 10.81MB Kongsberg multibeam vendor format
0274_20111222_014438_revelle.all.mb58.gz 10.82MB Kongsberg multibeam vendor format
0275_20111222_021424_revelle.all.mb58.gz 10.16MB Kongsberg multibeam vendor format
0276_20111222_024426_revelle.all.mb58.gz 12.16MB Kongsberg multibeam vendor format
0277_20111222_031431_revelle.all.mb58.gz 12.39MB Kongsberg multibeam vendor format
0278_20111222_034428_revelle.all.mb58.gz 12.20MB Kongsberg multibeam vendor format
0279_20111222_041424_revelle.all.mb58.gz 12.18MB Kongsberg multibeam vendor format
0280_20111222_044427_revelle.all.mb58.gz 12.72MB Kongsberg multibeam vendor format
0281_20111222_051432_revelle.all.mb58.gz 12.08MB Kongsberg multibeam vendor format
0282_20111222_054425_revelle.all.mb58.gz 12.57MB Kongsberg multibeam vendor format
0283_20111222_061436_revelle.all.mb58.gz 12.53MB Kongsberg multibeam vendor format
0284_20111222_064432_revelle.all.mb58.gz 12.43MB Kongsberg multibeam vendor format
0285_20111222_071426_revelle.all.mb58.gz 12.40MB Kongsberg multibeam vendor format
0286_20111222_074424_revelle.all.mb58.gz 12.42MB Kongsberg multibeam vendor format
0287_20111222_081425_revelle.all.mb58.gz 12.29MB Kongsberg multibeam vendor format
0288_20111222_084432_revelle.all.mb58.gz 12.08MB Kongsberg multibeam vendor format
0289_20111222_091426_revelle.all.mb58.gz 12.16MB Kongsberg multibeam vendor format
0290_20111222_094429_revelle.all.mb58.gz 11.83MB Kongsberg multibeam vendor format
0291_20111222_101426_revelle.all.mb58.gz 11.89MB Kongsberg multibeam vendor format
0292_20111222_104432_revelle.all.mb58.gz 12.24MB Kongsberg multibeam vendor format
0293_20111222_111434_revelle.all.mb58.gz 12.11MB Kongsberg multibeam vendor format
0294_20111222_114436_revelle.all.mb58.gz 12.11MB Kongsberg multibeam vendor format
0295_20111222_121430_revelle.all.mb58.gz 12.20MB Kongsberg multibeam vendor format
0296_20111222_124425_revelle.all.mb58.gz 11.38MB Kongsberg multibeam vendor format
0297_20111222_131424_revelle.all.mb58.gz 12.20MB Kongsberg multibeam vendor format
0298_20111222_134429_revelle.all.mb58.gz 11.73MB Kongsberg multibeam vendor format
0299_20111222_141423_revelle.all.mb58.gz 12.05MB Kongsberg multibeam vendor format
0300_20111222_144425_revelle.all.mb58.gz 11.27MB Kongsberg multibeam vendor format
0301_20111222_151428_revelle.all.mb58.gz 11.41MB Kongsberg multibeam vendor format
0302_20111222_154438_revelle.all.mb58.gz 11.10MB Kongsberg multibeam vendor format
0303_20111222_161436_revelle.all.mb58.gz 10.92MB Kongsberg multibeam vendor format
0304_20111222_164425_revelle.all.mb58.gz 11.16MB Kongsberg multibeam vendor format
0305_20111222_171439_revelle.all.mb58.gz 10.63MB Kongsberg multibeam vendor format
0306_20111222_174435_revelle.all.mb58.gz 10.78MB Kongsberg multibeam vendor format
0307_20111222_181426_revelle.all.mb58.gz 11.32MB Kongsberg multibeam vendor format
0308_20111222_184429_revelle.all.mb58.gz 11.40MB Kongsberg multibeam vendor format
0309_20111222_191435_revelle.all.mb58.gz 11.55MB Kongsberg multibeam vendor format
0310_20111222_194426_revelle.all.mb58.gz 11.38MB Kongsberg multibeam vendor format
0311_20111222_201431_revelle.all.mb58.gz 11.54MB Kongsberg multibeam vendor format
0312_20111222_204428_revelle.all.mb58.gz 11.52MB Kongsberg multibeam vendor format
0313_20111222_211434_revelle.all.mb58.gz 11.69MB Kongsberg multibeam vendor format
0314_20111222_214425_revelle.all.mb58.gz 11.54MB Kongsberg multibeam vendor format
0315_20111222_221431_revelle.all.mb58.gz 11.13MB Kongsberg multibeam vendor format
0316_20111222_224426_revelle.all.mb58.gz 10.74MB Kongsberg multibeam vendor format
0317_20111222_231424_revelle.all.mb58.gz 11.00MB Kongsberg multibeam vendor format
0318_20111222_234430_revelle.all.mb58.gz 10.77MB Kongsberg multibeam vendor format
0319_20111223_001431_revelle.all.mb58.gz 10.73MB Kongsberg multibeam vendor format
0320_20111223_004429_revelle.all.mb58.gz 10.78MB Kongsberg multibeam vendor format
0321_20111223_011429_revelle.all.mb58.gz 10.81MB Kongsberg multibeam vendor format
0322_20111223_014429_revelle.all.mb58.gz 11.16MB Kongsberg multibeam vendor format
0323_20111223_021426_revelle.all.mb58.gz 11.31MB Kongsberg multibeam vendor format
0324_20111223_024429_revelle.all.mb58.gz 11.20MB Kongsberg multibeam vendor format
0325_20111223_031428_revelle.all.mb58.gz 10.79MB Kongsberg multibeam vendor format
0326_20111223_034431_revelle.all.mb58.gz 11.44MB Kongsberg multibeam vendor format
0327_20111223_041432_revelle.all.mb58.gz 11.25MB Kongsberg multibeam vendor format
0328_20111223_044438_revelle.all.mb58.gz 10.91MB Kongsberg multibeam vendor format
0329_20111223_051433_revelle.all.mb58.gz 10.77MB Kongsberg multibeam vendor format
0330_20111223_054424_revelle.all.mb58.gz 11.28MB Kongsberg multibeam vendor format
0331_20111223_061430_revelle.all.mb58.gz 10.81MB Kongsberg multibeam vendor format
0332_20111223_064433_revelle.all.mb58.gz 10.92MB Kongsberg multibeam vendor format
0333_20111223_071428_revelle.all.mb58.gz 11.25MB Kongsberg multibeam vendor format
0334_20111223_074424_revelle.all.mb58.gz 11.53MB Kongsberg multibeam vendor format
0335_20111223_081426_revelle.all.mb58.gz 11.20MB Kongsberg multibeam vendor format
0336_20111223_084435_revelle.all.mb58.gz 10.90MB Kongsberg multibeam vendor format
0337_20111223_091427_revelle.all.mb58.gz 11.08MB Kongsberg multibeam vendor format
0338_20111223_094424_revelle.all.mb58.gz 10.92MB Kongsberg multibeam vendor format
0339_20111223_101425_revelle.all.mb58.gz 11.22MB Kongsberg multibeam vendor format
0340_20111223_104430_revelle.all.mb58.gz 10.81MB Kongsberg multibeam vendor format
0341_20111223_111431_revelle.all.mb58.gz 11.00MB Kongsberg multibeam vendor format
0342_20111223_114432_revelle.all.mb58.gz 10.77MB Kongsberg multibeam vendor format
0343_20111223_121426_revelle.all.mb58.gz 10.96MB Kongsberg multibeam vendor format
0344_20111223_124422_revelle.all.mb58.gz 10.62MB Kongsberg multibeam vendor format
0345_20111223_131427_revelle.all.mb58.gz 10.67MB Kongsberg multibeam vendor format
0346_20111223_134434_revelle.all.mb58.gz 10.32MB Kongsberg multibeam vendor format
0347_20111223_141425_revelle.all.mb58.gz 9.82MB Kongsberg multibeam vendor format
0348_20111223_144425_revelle.all.mb58.gz 10.09MB Kongsberg multibeam vendor format
0349_20111223_151432_revelle.all.mb58.gz 10.17MB Kongsberg multibeam vendor format
0350_20111223_154437_revelle.all.mb58.gz 10.21MB Kongsberg multibeam vendor format
0351_20111223_161431_revelle.all.mb58.gz 10.16MB Kongsberg multibeam vendor format
0352_20111223_164430_revelle.all.mb58.gz 9.80MB Kongsberg multibeam vendor format
0353_20111223_171429_revelle.all.mb58.gz 9.99MB Kongsberg multibeam vendor format
0354_20111223_174427_revelle.all.mb58.gz 9.96MB Kongsberg multibeam vendor format
0355_20111223_181428_revelle.all.mb58.gz 10.64MB Kongsberg multibeam vendor format
0356_20111223_184422_revelle.all.mb58.gz 9.96MB Kongsberg multibeam vendor format
0357_20111223_191424_revelle.all.mb58.gz 10.02MB Kongsberg multibeam vendor format
0358_20111223_194427_revelle.all.mb58.gz 10.06MB Kongsberg multibeam vendor format
0359_20111223_201439_revelle.all.mb58.gz 10.07MB Kongsberg multibeam vendor format
0360_20111223_204433_revelle.all.mb58.gz 10.02MB Kongsberg multibeam vendor format
0361_20111223_211429_revelle.all.mb58.gz 9.99MB Kongsberg multibeam vendor format
0362_20111223_214436_revelle.all.mb58.gz 9.88MB Kongsberg multibeam vendor format
0363_20111223_221425_revelle.all.mb58.gz 9.87MB Kongsberg multibeam vendor format
0364_20111223_224434_revelle.all.mb58.gz 9.86MB Kongsberg multibeam vendor format
0365_20111223_231433_revelle.all.mb58.gz 9.74MB Kongsberg multibeam vendor format
0366_20111223_234425_revelle.all.mb58.gz 10.01MB Kongsberg multibeam vendor format
0367_20111224_001433_revelle.all.mb58.gz 9.69MB Kongsberg multibeam vendor format
0368_20111224_004424_revelle.all.mb58.gz 9.63MB Kongsberg multibeam vendor format
0369_20111224_011428_revelle.all.mb58.gz 9.92MB Kongsberg multibeam vendor format
0370_20111224_014421_revelle.all.mb58.gz 10.11MB Kongsberg multibeam vendor format
0371_20111224_021441_revelle.all.mb58.gz 10.28MB Kongsberg multibeam vendor format
0372_20111224_024433_revelle.all.mb58.gz 10.94MB Kongsberg multibeam vendor format
0373_20111224_031427_revelle.all.mb58.gz 10.80MB Kongsberg multibeam vendor format
0374_20111224_034433_revelle.all.mb58.gz 10.70MB Kongsberg multibeam vendor format
0375_20111224_041425_revelle.all.mb58.gz 10.44MB Kongsberg multibeam vendor format
0376_20111224_044433_revelle.all.mb58.gz 10.58MB Kongsberg multibeam vendor format
0377_20111224_051421_revelle.all.mb58.gz 10.71MB Kongsberg multibeam vendor format
0378_20111224_054432_revelle.all.mb58.gz 10.29MB Kongsberg multibeam vendor format
0379_20111224_061436_revelle.all.mb58.gz 10.15MB Kongsberg multibeam vendor format
0380_20111224_064437_revelle.all.mb58.gz 10.47MB Kongsberg multibeam vendor format
0381_20111224_071424_revelle.all.mb58.gz 10.47MB Kongsberg multibeam vendor format
0382_20111224_074428_revelle.all.mb58.gz 11.42MB Kongsberg multibeam vendor format
0383_20111224_081431_revelle.all.mb58.gz 10.43MB Kongsberg multibeam vendor format
0384_20111224_084436_revelle.all.mb58.gz 10.25MB Kongsberg multibeam vendor format
0385_20111224_091425_revelle.all.mb58.gz 10.42MB Kongsberg multibeam vendor format
0386_20111224_094432_revelle.all.mb58.gz 10.85MB Kongsberg multibeam vendor format
0387_20111224_101428_revelle.all.mb58.gz 10.33MB Kongsberg multibeam vendor format
0388_20111224_104435_revelle.all.mb58.gz 10.58MB Kongsberg multibeam vendor format
0389_20111224_111435_revelle.all.mb58.gz 10.08MB Kongsberg multibeam vendor format
0390_20111224_114431_revelle.all.mb58.gz 10.37MB Kongsberg multibeam vendor format
0391_20111224_121430_revelle.all.mb58.gz 9.92MB Kongsberg multibeam vendor format
0392_20111224_124434_revelle.all.mb58.gz 10.12MB Kongsberg multibeam vendor format
0393_20111224_131420_revelle.all.mb58.gz 10.43MB Kongsberg multibeam vendor format
0394_20111224_134428_revelle.all.mb58.gz 10.19MB Kongsberg multibeam vendor format
0395_20111224_141431_revelle.all.mb58.gz 10.07MB Kongsberg multibeam vendor format
0396_20111224_144424_revelle.all.mb58.gz 10.12MB Kongsberg multibeam vendor format
0397_20111224_151425_revelle.all.mb58.gz 10.04MB Kongsberg multibeam vendor format
0398_20111224_154426_revelle.all.mb58.gz 9.97MB Kongsberg multibeam vendor format
0399_20111224_161423_revelle.all.mb58.gz 10.06MB Kongsberg multibeam vendor format
0400_20111224_164425_revelle.all.mb58.gz 9.84MB Kongsberg multibeam vendor format
0401_20111224_171423_revelle.all.mb58.gz 10.01MB Kongsberg multibeam vendor format
0402_20111224_174430_revelle.all.mb58.gz 10.66MB Kongsberg multibeam vendor format
0403_20111224_181426_revelle.all.mb58.gz 10.38MB Kongsberg multibeam vendor format
0404_20111224_184434_revelle.all.mb58.gz 10.06MB Kongsberg multibeam vendor format
0405_20111224_191427_revelle.all.mb58.gz 10.29MB Kongsberg multibeam vendor format
0406_20111224_194436_revelle.all.mb58.gz 10.05MB Kongsberg multibeam vendor format
0407_20111224_201429_revelle.all.mb58.gz 10.34MB Kongsberg multibeam vendor format
0408_20111224_204438_revelle.all.mb58.gz 10.49MB Kongsberg multibeam vendor format
0409_20111224_211434_revelle.all.mb58.gz 10.60MB Kongsberg multibeam vendor format
0410_20111224_214429_revelle.all.mb58.gz 10.44MB Kongsberg multibeam vendor format
0411_20111224_221422_revelle.all.mb58.gz 10.96MB Kongsberg multibeam vendor format
0412_20111224_224434_revelle.all.mb58.gz 11.00MB Kongsberg multibeam vendor format
0413_20111224_231434_revelle.all.mb58.gz 11.02MB Kongsberg multibeam vendor format
0414_20111224_234427_revelle.all.mb58.gz 11.03MB Kongsberg multibeam vendor format
0415_20111225_001426_revelle.all.mb58.gz 11.07MB Kongsberg multibeam vendor format
0416_20111225_004434_revelle.all.mb58.gz 10.98MB Kongsberg multibeam vendor format
0417_20111225_011420_revelle.all.mb58.gz 11.27MB Kongsberg multibeam vendor format
0418_20111225_014430_revelle.all.mb58.gz 10.99MB Kongsberg multibeam vendor format
0419_20111225_021433_revelle.all.mb58.gz 10.62MB Kongsberg multibeam vendor format
0420_20111225_024425_revelle.all.mb58.gz 10.95MB Kongsberg multibeam vendor format
0421_20111225_031427_revelle.all.mb58.gz 11.69MB Kongsberg multibeam vendor format
0422_20111225_034425_revelle.all.mb58.gz 11.27MB Kongsberg multibeam vendor format
0423_20111225_041422_revelle.all.mb58.gz 11.21MB Kongsberg multibeam vendor format
0424_20111225_044427_revelle.all.mb58.gz 11.23MB Kongsberg multibeam vendor format
0425_20111225_051428_revelle.all.mb58.gz 11.06MB Kongsberg multibeam vendor format
0426_20111225_054424_revelle.all.mb58.gz 10.50MB Kongsberg multibeam vendor format
0427_20111225_061421_revelle.all.mb58.gz 10.48MB Kongsberg multibeam vendor format
0428_20111225_064432_revelle.all.mb58.gz 10.98MB Kongsberg multibeam vendor format
0429_20111225_071436_revelle.all.mb58.gz 11.23MB Kongsberg multibeam vendor format
0430_20111225_074432_revelle.all.mb58.gz 10.61MB Kongsberg multibeam vendor format
0431_20111225_081421_revelle.all.mb58.gz 10.86MB Kongsberg multibeam vendor format
0432_20111225_084419_revelle.all.mb58.gz 10.25MB Kongsberg multibeam vendor format
0433_20111225_091420_revelle.all.mb58.gz 10.24MB Kongsberg multibeam vendor format
0434_20111225_094427_revelle.all.mb58.gz 10.21MB Kongsberg multibeam vendor format
0435_20111225_101420_revelle.all.mb58.gz 10.22MB Kongsberg multibeam vendor format
0436_20111225_104419_revelle.all.mb58.gz 10.58MB Kongsberg multibeam vendor format
0437_20111225_111432_revelle.all.mb58.gz 10.24MB Kongsberg multibeam vendor format
0438_20111225_114433_revelle.all.mb58.gz 10.28MB Kongsberg multibeam vendor format
0439_20111225_121423_revelle.all.mb58.gz 10.51MB Kongsberg multibeam vendor format
0440_20111225_124427_revelle.all.mb58.gz 10.48MB Kongsberg multibeam vendor format
0441_20111225_131428_revelle.all.mb58.gz 10.18MB Kongsberg multibeam vendor format
0442_20111225_134431_revelle.all.mb58.gz 10.09MB Kongsberg multibeam vendor format
0443_20111225_141421_revelle.all.mb58.gz 10.17MB Kongsberg multibeam vendor format
0444_20111225_144428_revelle.all.mb58.gz 10.12MB Kongsberg multibeam vendor format
0445_20111225_151430_revelle.all.mb58.gz 10.10MB Kongsberg multibeam vendor format
0446_20111225_154426_revelle.all.mb58.gz 10.29MB Kongsberg multibeam vendor format
0447_20111225_161438_revelle.all.mb58.gz 10.09MB Kongsberg multibeam vendor format
0448_20111225_164424_revelle.all.mb58.gz 10.09MB Kongsberg multibeam vendor format
0449_20111225_171436_revelle.all.mb58.gz 9.99MB Kongsberg multibeam vendor format
0450_20111225_174419_revelle.all.mb58.gz 10.23MB Kongsberg multibeam vendor format
0451_20111225_181435_revelle.all.mb58.gz 9.96MB Kongsberg multibeam vendor format
0452_20111225_184438_revelle.all.mb58.gz 9.94MB Kongsberg multibeam vendor format
0453_20111225_191424_revelle.all.mb58.gz 9.96MB Kongsberg multibeam vendor format
0454_20111225_194428_revelle.all.mb58.gz 9.93MB Kongsberg multibeam vendor format
0455_20111225_201433_revelle.all.mb58.gz 9.89MB Kongsberg multibeam vendor format
0456_20111225_204440_revelle.all.mb58.gz 9.88MB Kongsberg multibeam vendor format
0457_20111225_211439_revelle.all.mb58.gz 9.84MB Kongsberg multibeam vendor format
0458_20111225_214434_revelle.all.mb58.gz 9.99MB Kongsberg multibeam vendor format
0459_20111225_221438_revelle.all.mb58.gz 9.88MB Kongsberg multibeam vendor format
0460_20111225_224431_revelle.all.mb58.gz 9.77MB Kongsberg multibeam vendor format
0461_20111225_231432_revelle.all.mb58.gz 9.94MB Kongsberg multibeam vendor format
0462_20111225_234424_revelle.all.mb58.gz 10.01MB Kongsberg multibeam vendor format
0463_20111226_001439_revelle.all.mb58.gz 9.92MB Kongsberg multibeam vendor format
0464_20111226_004430_revelle.all.mb58.gz 10.06MB Kongsberg multibeam vendor format
0465_20111226_011436_revelle.all.mb58.gz 9.98MB Kongsberg multibeam vendor format
0466_20111226_014433_revelle.all.mb58.gz 10.01MB Kongsberg multibeam vendor format
0467_20111226_021421_revelle.all.mb58.gz 10.28MB Kongsberg multibeam vendor format
0468_20111226_024430_revelle.all.mb58.gz 11.17MB Kongsberg multibeam vendor format
0469_20111226_031433_revelle.all.mb58.gz 11.07MB Kongsberg multibeam vendor format
0470_20111226_034425_revelle.all.mb58.gz 11.03MB Kongsberg multibeam vendor format
0471_20111226_041430_revelle.all.mb58.gz 10.62MB Kongsberg multibeam vendor format
0472_20111226_044423_revelle.all.mb58.gz 11.25MB Kongsberg multibeam vendor format
0473_20111226_051429_revelle.all.mb58.gz 10.98MB Kongsberg multibeam vendor format
0474_20111226_054426_revelle.all.mb58.gz 11.07MB Kongsberg multibeam vendor format
0475_20111226_061423_revelle.all.mb58.gz 11.28MB Kongsberg multibeam vendor format
0476_20111226_064427_revelle.all.mb58.gz 11.23MB Kongsberg multibeam vendor format
0477_20111226_071424_revelle.all.mb58.gz 11.11MB Kongsberg multibeam vendor format
0478_20111226_074433_revelle.all.mb58.gz 10.78MB Kongsberg multibeam vendor format
0479_20111226_081423_revelle.all.mb58.gz 10.96MB Kongsberg multibeam vendor format
0480_20111226_084421_revelle.all.mb58.gz 11.17MB Kongsberg multibeam vendor format
0481_20111226_091424_revelle.all.mb58.gz 11.14MB Kongsberg multibeam vendor format
0482_20111226_094419_revelle.all.mb58.gz 11.56MB Kongsberg multibeam vendor format
0483_20111226_101420_revelle.all.mb58.gz 10.59MB Kongsberg multibeam vendor format
0484_20111226_104423_revelle.all.mb58.gz 10.69MB Kongsberg multibeam vendor format
0485_20111226_111428_revelle.all.mb58.gz 10.50MB Kongsberg multibeam vendor format
0486_20111226_114431_revelle.all.mb58.gz 10.31MB Kongsberg multibeam vendor format
0487_20111226_121428_revelle.all.mb58.gz 10.26MB Kongsberg multibeam vendor format
0488_20111226_124423_revelle.all.mb58.gz 10.77MB Kongsberg multibeam vendor format
0489_20111226_131419_revelle.all.mb58.gz 10.99MB Kongsberg multibeam vendor format
0490_20111226_134434_revelle.all.mb58.gz 10.47MB Kongsberg multibeam vendor format
0491_20111226_141435_revelle.all.mb58.gz 10.44MB Kongsberg multibeam vendor format
0492_20111226_144424_revelle.all.mb58.gz 10.23MB Kongsberg multibeam vendor format
0493_20111226_151423_revelle.all.mb58.gz 10.44MB Kongsberg multibeam vendor format
0494_20111226_154432_revelle.all.mb58.gz 10.21MB Kongsberg multibeam vendor format
0495_20111226_161431_revelle.all.mb58.gz 10.26MB Kongsberg multibeam vendor format
0496_20111226_164434_revelle.all.mb58.gz 10.29MB Kongsberg multibeam vendor format
0497_20111226_171430_revelle.all.mb58.gz 10.19MB Kongsberg multibeam vendor format
0498_20111226_174425_revelle.all.mb58.gz 10.22MB Kongsberg multibeam vendor format
0499_20111226_181428_revelle.all.mb58.gz 10.27MB Kongsberg multibeam vendor format
0500_20111226_184424_revelle.all.mb58.gz 10.22MB Kongsberg multibeam vendor format
0501_20111226_191425_revelle.all.mb58.gz 10.18MB Kongsberg multibeam vendor format
0502_20111226_194430_revelle.all.mb58.gz 10.19MB Kongsberg multibeam vendor format
0503_20111226_201430_revelle.all.mb58.gz 10.16MB Kongsberg multibeam vendor format
0504_20111226_204433_revelle.all.mb58.gz 10.19MB Kongsberg multibeam vendor format
0505_20111226_211427_revelle.all.mb58.gz 10.25MB Kongsberg multibeam vendor format
0506_20111226_214423_revelle.all.mb58.gz 10.30MB Kongsberg multibeam vendor format
0507_20111226_221427_revelle.all.mb58.gz 10.41MB Kongsberg multibeam vendor format
0508_20111226_224433_revelle.all.mb58.gz 10.56MB Kongsberg multibeam vendor format
0509_20111226_231419_revelle.all.mb58.gz 11.25MB Kongsberg multibeam vendor format
0510_20111226_234425_revelle.all.mb58.gz 11.17MB Kongsberg multibeam vendor format
0511_20111227_001430_revelle.all.mb58.gz 10.81MB Kongsberg multibeam vendor format
0512_20111227_004433_revelle.all.mb58.gz 10.56MB Kongsberg multibeam vendor format
0513_20111227_011418_revelle.all.mb58.gz 10.47MB Kongsberg multibeam vendor format
0514_20111227_014435_revelle.all.mb58.gz 10.23MB Kongsberg multibeam vendor format
0515_20111227_021433_revelle.all.mb58.gz 10.46MB Kongsberg multibeam vendor format
0516_20111227_024424_revelle.all.mb58.gz 10.58MB Kongsberg multibeam vendor format
0517_20111227_031429_revelle.all.mb58.gz 10.50MB Kongsberg multibeam vendor format
0518_20111227_034426_revelle.all.mb58.gz 10.52MB Kongsberg multibeam vendor format
0519_20111227_041428_revelle.all.mb58.gz 10.48MB Kongsberg multibeam vendor format
0520_20111227_044417_revelle.all.mb58.gz 10.67MB Kongsberg multibeam vendor format
0521_20111227_051431_revelle.all.mb58.gz 10.57MB Kongsberg multibeam vendor format
0522_20111227_054427_revelle.all.mb58.gz 10.86MB Kongsberg multibeam vendor format
0523_20111227_061431_revelle.all.mb58.gz 10.67MB Kongsberg multibeam vendor format
0524_20111227_064423_revelle.all.mb58.gz 10.64MB Kongsberg multibeam vendor format
0525_20111227_071430_revelle.all.mb58.gz 10.58MB Kongsberg multibeam vendor format
0526_20111227_074434_revelle.all.mb58.gz 10.54MB Kongsberg multibeam vendor format
0527_20111227_081423_revelle.all.mb58.gz 10.71MB Kongsberg multibeam vendor format
0528_20111227_084430_revelle.all.mb58.gz 11.64MB Kongsberg multibeam vendor format
0529_20111227_091421_revelle.all.mb58.gz 11.63MB Kongsberg multibeam vendor format
0530_20111227_094418_revelle.all.mb58.gz 11.68MB Kongsberg multibeam vendor format
0531_20111227_101427_revelle.all.mb58.gz 11.35MB Kongsberg multibeam vendor format
0532_20111227_104429_revelle.all.mb58.gz 11.57MB Kongsberg multibeam vendor format
0533_20111227_111418_revelle.all.mb58.gz 11.18MB Kongsberg multibeam vendor format
0534_20111227_114424_revelle.all.mb58.gz 11.49MB Kongsberg multibeam vendor format
0535_20111227_121429_revelle.all.mb58.gz 11.14MB Kongsberg multibeam vendor format
0536_20111227_124419_revelle.all.mb58.gz 11.11MB Kongsberg multibeam vendor format
0537_20111227_131427_revelle.all.mb58.gz 11.20MB Kongsberg multibeam vendor format
0538_20111227_134418_revelle.all.mb58.gz 11.51MB Kongsberg multibeam vendor format
0539_20111227_141419_revelle.all.mb58.gz 11.25MB Kongsberg multibeam vendor format
0540_20111227_144423_revelle.all.mb58.gz 11.00MB Kongsberg multibeam vendor format
0541_20111227_151422_revelle.all.mb58.gz 11.05MB Kongsberg multibeam vendor format
0542_20111227_154418_revelle.all.mb58.gz 11.10MB Kongsberg multibeam vendor format
0543_20111227_161427_revelle.all.mb58.gz 10.96MB Kongsberg multibeam vendor format
0544_20111227_164429_revelle.all.mb58.gz 10.86MB Kongsberg multibeam vendor format
0545_20111227_171427_revelle.all.mb58.gz 11.49MB Kongsberg multibeam vendor format
0546_20111227_174420_revelle.all.mb58.gz 11.66MB Kongsberg multibeam vendor format
0547_20111227_181421_revelle.all.mb58.gz 11.91MB Kongsberg multibeam vendor format
0548_20111227_184418_revelle.all.mb58.gz 11.94MB Kongsberg multibeam vendor format
0549_20111227_191419_revelle.all.mb58.gz 11.95MB Kongsberg multibeam vendor format
0550_20111227_194423_revelle.all.mb58.gz 11.90MB Kongsberg multibeam vendor format
0551_20111227_201418_revelle.all.mb58.gz 11.45MB Kongsberg multibeam vendor format
0552_20111227_204419_revelle.all.mb58.gz 11.75MB Kongsberg multibeam vendor format
0553_20111227_211427_revelle.all.mb58.gz 11.31MB Kongsberg multibeam vendor format
0554_20111227_214421_revelle.all.mb58.gz 11.73MB Kongsberg multibeam vendor format
0555_20111227_221426_revelle.all.mb58.gz 11.81MB Kongsberg multibeam vendor format
0556_20111227_224420_revelle.all.mb58.gz 11.71MB Kongsberg multibeam vendor format
0557_20111227_231425_revelle.all.mb58.gz 11.82MB Kongsberg multibeam vendor format
0558_20111227_234427_revelle.all.mb58.gz 11.74MB Kongsberg multibeam vendor format
0559_20111228_001417_revelle.all.mb58.gz 11.76MB Kongsberg multibeam vendor format
0560_20111228_004426_revelle.all.mb58.gz 11.50MB Kongsberg multibeam vendor format
0561_20111228_011417_revelle.all.mb58.gz 11.82MB Kongsberg multibeam vendor format
0562_20111228_014423_revelle.all.mb58.gz 11.52MB Kongsberg multibeam vendor format
0563_20111228_021424_revelle.all.mb58.gz 11.35MB Kongsberg multibeam vendor format
0564_20111228_024427_revelle.all.mb58.gz 11.64MB Kongsberg multibeam vendor format
0565_20111228_031427_revelle.all.mb58.gz 11.52MB Kongsberg multibeam vendor format
0566_20111228_034430_revelle.all.mb58.gz 10.56MB Kongsberg multibeam vendor format
0567_20111228_041416_revelle.all.mb58.gz 11.10MB Kongsberg multibeam vendor format
0568_20111228_044425_revelle.all.mb58.gz 11.06MB Kongsberg multibeam vendor format
0569_20111228_051429_revelle.all.mb58.gz 11.06MB Kongsberg multibeam vendor format
0570_20111228_054432_revelle.all.mb58.gz 11.38MB Kongsberg multibeam vendor format
0571_20111228_061429_revelle.all.mb58.gz 11.53MB Kongsberg multibeam vendor format
0572_20111228_064444_revelle.all.mb58.gz 11.69MB Kongsberg multibeam vendor format
0573_20111228_071434_revelle.all.mb58.gz 11.07MB Kongsberg multibeam vendor format
0574_20111228_074436_revelle.all.mb58.gz 11.18MB Kongsberg multibeam vendor format
0575_20111228_081439_revelle.all.mb58.gz 11.23MB Kongsberg multibeam vendor format
0576_20111228_084442_revelle.all.mb58.gz 11.14MB Kongsberg multibeam vendor format
0577_20111228_091440_revelle.all.mb58.gz 11.11MB Kongsberg multibeam vendor format
0578_20111228_094440_revelle.all.mb58.gz 11.21MB Kongsberg multibeam vendor format
0579_20111228_101440_revelle.all.mb58.gz 10.77MB Kongsberg multibeam vendor format
0580_20111228_104433_revelle.all.mb58.gz 11.29MB Kongsberg multibeam vendor format
0581_20111228_111438_revelle.all.mb58.gz 11.24MB Kongsberg multibeam vendor format
0582_20111228_114434_revelle.all.mb58.gz 11.22MB Kongsberg multibeam vendor format
0583_20111228_121443_revelle.all.mb58.gz 11.59MB Kongsberg multibeam vendor format
0584_20111228_124436_revelle.all.mb58.gz 11.40MB Kongsberg multibeam vendor format
0585_20111228_131446_revelle.all.mb58.gz 11.59MB Kongsberg multibeam vendor format
0586_20111228_134440_revelle.all.mb58.gz 11.62MB Kongsberg multibeam vendor format
0587_20111228_141448_revelle.all.mb58.gz 11.21MB Kongsberg multibeam vendor format
0588_20111228_144449_revelle.all.mb58.gz 11.16MB Kongsberg multibeam vendor format
0589_20111228_151446_revelle.all.mb58.gz 10.98MB Kongsberg multibeam vendor format
0590_20111228_154452_revelle.all.mb58.gz 10.52MB Kongsberg multibeam vendor format
0591_20111228_161445_revelle.all.mb58.gz 10.49MB Kongsberg multibeam vendor format
0592_20111228_164454_revelle.all.mb58.gz 10.57MB Kongsberg multibeam vendor format
0593_20111228_171447_revelle.all.mb58.gz 10.76MB Kongsberg multibeam vendor format
0594_20111228_174455_revelle.all.mb58.gz 10.87MB Kongsberg multibeam vendor format
0595_20111228_181454_revelle.all.mb58.gz 10.84MB Kongsberg multibeam vendor format
0596_20111228_184455_revelle.all.mb58.gz 10.66MB Kongsberg multibeam vendor format
0597_20111228_191443_revelle.all.mb58.gz 10.54MB Kongsberg multibeam vendor format
0598_20111228_194448_revelle.all.mb58.gz 10.68MB Kongsberg multibeam vendor format
0599_20111228_201446_revelle.all.mb58.gz 10.85MB Kongsberg multibeam vendor format
0600_20111228_204444_revelle.all.mb58.gz 10.59MB Kongsberg multibeam vendor format
0601_20111228_211449_revelle.all.mb58.gz 10.51MB Kongsberg multibeam vendor format
0602_20111228_214448_revelle.all.mb58.gz 10.35MB Kongsberg multibeam vendor format
0603_20111228_221450_revelle.all.mb58.gz 10.42MB Kongsberg multibeam vendor format
0604_20111228_224458_revelle.all.mb58.gz 10.43MB Kongsberg multibeam vendor format
0605_20111228_231446_revelle.all.mb58.gz 11.33MB Kongsberg multibeam vendor format
0606_20111228_234454_revelle.all.mb58.gz 10.90MB Kongsberg multibeam vendor format
0607_20111229_001446_revelle.all.mb58.gz 10.80MB Kongsberg multibeam vendor format
0608_20111229_004442_revelle.all.mb58.gz 11.10MB Kongsberg multibeam vendor format
0609_20111229_011449_revelle.all.mb58.gz 10.91MB Kongsberg multibeam vendor format
0610_20111229_014444_revelle.all.mb58.gz 10.80MB Kongsberg multibeam vendor format
0611_20111229_021452_revelle.all.mb58.gz 10.68MB Kongsberg multibeam vendor format
0612_20111229_024454_revelle.all.mb58.gz 11.08MB Kongsberg multibeam vendor format
0613_20111229_031452_revelle.all.mb58.gz 10.57MB Kongsberg multibeam vendor format
0614_20111229_034451_revelle.all.mb58.gz 10.41MB Kongsberg multibeam vendor format
0615_20111229_041442_revelle.all.mb58.gz 10.64MB Kongsberg multibeam vendor format
0616_20111229_044439_revelle.all.mb58.gz 11.03MB Kongsberg multibeam vendor format
0617_20111229_051449_revelle.all.mb58.gz 10.59MB Kongsberg multibeam vendor format
0618_20111229_054446_revelle.all.mb58.gz 10.93MB Kongsberg multibeam vendor format
0619_20111229_061452_revelle.all.mb58.gz 10.78MB Kongsberg multibeam vendor format
0620_20111229_064451_revelle.all.mb58.gz 11.27MB Kongsberg multibeam vendor format
0621_20111229_071455_revelle.all.mb58.gz 10.85MB Kongsberg multibeam vendor format
0622_20111229_074441_revelle.all.mb58.gz 11.22MB Kongsberg multibeam vendor format
0623_20111229_081442_revelle.all.mb58.gz 11.18MB Kongsberg multibeam vendor format
0624_20111229_084452_revelle.all.mb58.gz 11.39MB Kongsberg multibeam vendor format
0625_20111229_091451_revelle.all.mb58.gz 11.32MB Kongsberg multibeam vendor format
0626_20111229_094451_revelle.all.mb58.gz 11.24MB Kongsberg multibeam vendor format
0627_20111229_101439_revelle.all.mb58.gz 11.02MB Kongsberg multibeam vendor format
0628_20111229_104449_revelle.all.mb58.gz 11.19MB Kongsberg multibeam vendor format
0629_20111229_111448_revelle.all.mb58.gz 10.44MB Kongsberg multibeam vendor format
0630_20111229_114447_revelle.all.mb58.gz 10.49MB Kongsberg multibeam vendor format
0631_20111229_121448_revelle.all.mb58.gz 10.37MB Kongsberg multibeam vendor format
0632_20111229_124454_revelle.all.mb58.gz 10.35MB Kongsberg multibeam vendor format
0633_20111229_131440_revelle.all.mb58.gz 10.78MB Kongsberg multibeam vendor format
0634_20111229_134450_revelle.all.mb58.gz 10.53MB Kongsberg multibeam vendor format
0635_20111229_141452_revelle.all.mb58.gz 10.43MB Kongsberg multibeam vendor format
0636_20111229_144441_revelle.all.mb58.gz 10.75MB Kongsberg multibeam vendor format
0637_20111229_151453_revelle.all.mb58.gz 10.73MB Kongsberg multibeam vendor format
0638_20111229_154456_revelle.all.mb58.gz 10.49MB Kongsberg multibeam vendor format
0639_20111229_161445_revelle.all.mb58.gz 11.03MB Kongsberg multibeam vendor format
0640_20111229_164447_revelle.all.mb58.gz 10.97MB Kongsberg multibeam vendor format
0641_20111229_171448_revelle.all.mb58.gz 11.10MB Kongsberg multibeam vendor format
0642_20111229_174439_revelle.all.mb58.gz 11.14MB Kongsberg multibeam vendor format
0643_20111229_181441_revelle.all.mb58.gz 11.15MB Kongsberg multibeam vendor format
0644_20111229_184443_revelle.all.mb58.gz 11.32MB Kongsberg multibeam vendor format
0645_20111229_191446_revelle.all.mb58.gz 11.12MB Kongsberg multibeam vendor format
0646_20111229_194439_revelle.all.mb58.gz 11.32MB Kongsberg multibeam vendor format
0647_20111229_201446_revelle.all.mb58.gz 11.15MB Kongsberg multibeam vendor format
0648_20111229_204442_revelle.all.mb58.gz 11.17MB Kongsberg multibeam vendor format
0649_20111229_211451_revelle.all.mb58.gz 10.88MB Kongsberg multibeam vendor format
0650_20111229_214443_revelle.all.mb58.gz 10.78MB Kongsberg multibeam vendor format
0651_20111229_221438_revelle.all.mb58.gz 10.76MB Kongsberg multibeam vendor format
0652_20111229_224442_revelle.all.mb58.gz 10.85MB Kongsberg multibeam vendor format
0653_20111229_231449_revelle.all.mb58.gz 11.06MB Kongsberg multibeam vendor format
0654_20111229_234447_revelle.all.mb58.gz 11.00MB Kongsberg multibeam vendor format
0655_20111230_001444_revelle.all.mb58.gz 10.95MB Kongsberg multibeam vendor format
0656_20111230_004445_revelle.all.mb58.gz 10.75MB Kongsberg multibeam vendor format
0657_20111230_011447_revelle.all.mb58.gz 10.88MB Kongsberg multibeam vendor format
0658_20111230_014445_revelle.all.mb58.gz 10.89MB Kongsberg multibeam vendor format
0659_20111230_021445_revelle.all.mb58.gz 10.74MB Kongsberg multibeam vendor format
0660_20111230_024440_revelle.all.mb58.gz 10.58MB Kongsberg multibeam vendor format
0661_20111230_031444_revelle.all.mb58.gz 10.18MB Kongsberg multibeam vendor format
0662_20111230_034440_revelle.all.mb58.gz 10.34MB Kongsberg multibeam vendor format
0663_20111230_041443_revelle.all.mb58.gz 10.54MB Kongsberg multibeam vendor format
0664_20111230_044447_revelle.all.mb58.gz 10.71MB Kongsberg multibeam vendor format
0665_20111230_051453_revelle.all.mb58.gz 10.41MB Kongsberg multibeam vendor format
0666_20111230_054438_revelle.all.mb58.gz 10.52MB Kongsberg multibeam vendor format
0667_20111230_061452_revelle.all.mb58.gz 10.24MB Kongsberg multibeam vendor format
0668_20111230_064438_revelle.all.mb58.gz 10.48MB Kongsberg multibeam vendor format
0669_20111230_071443_revelle.all.mb58.gz 10.43MB Kongsberg multibeam vendor format
0670_20111230_074447_revelle.all.mb58.gz 10.35MB Kongsberg multibeam vendor format
0671_20111230_081447_revelle.all.mb58.gz 10.21MB Kongsberg multibeam vendor format
0672_20111230_084443_revelle.all.mb58.gz 10.12MB Kongsberg multibeam vendor format
0673_20111230_091442_revelle.all.mb58.gz 10.08MB Kongsberg multibeam vendor format
0674_20111230_094451_revelle.all.mb58.gz 10.03MB Kongsberg multibeam vendor format
0675_20111230_101446_revelle.all.mb58.gz 10.10MB Kongsberg multibeam vendor format
0676_20111230_104445_revelle.all.mb58.gz 10.22MB Kongsberg multibeam vendor format
0677_20111230_111449_revelle.all.mb58.gz 10.29MB Kongsberg multibeam vendor format
0678_20111230_114449_revelle.all.mb58.gz 10.27MB Kongsberg multibeam vendor format
0679_20111230_121440_revelle.all.mb58.gz 10.18MB Kongsberg multibeam vendor format
0680_20111230_124445_revelle.all.mb58.gz 10.20MB Kongsberg multibeam vendor format
0681_20111230_131448_revelle.all.mb58.gz 10.04MB Kongsberg multibeam vendor format
0682_20111230_134442_revelle.all.mb58.gz 10.04MB Kongsberg multibeam vendor format
0683_20111230_141436_revelle.all.mb58.gz 10.20MB Kongsberg multibeam vendor format
0684_20111230_144452_revelle.all.mb58.gz 9.60MB Kongsberg multibeam vendor format
0685_20111230_151441_revelle.all.mb58.gz 9.83MB Kongsberg multibeam vendor format
0686_20111230_154450_revelle.all.mb58.gz 10.03MB Kongsberg multibeam vendor format
0687_20111230_161449_revelle.all.mb58.gz 10.03MB Kongsberg multibeam vendor format
0688_20111230_164442_revelle.all.mb58.gz 10.02MB Kongsberg multibeam vendor format
0689_20111230_171443_revelle.all.mb58.gz 9.89MB Kongsberg multibeam vendor format
0690_20111230_174436_revelle.all.mb58.gz 9.66MB Kongsberg multibeam vendor format
0691_20111230_181441_revelle.all.mb58.gz 9.54MB Kongsberg multibeam vendor format
0692_20111230_184444_revelle.all.mb58.gz 9.72MB Kongsberg multibeam vendor format
0693_20111230_191453_revelle.all.mb58.gz 9.74MB Kongsberg multibeam vendor format
0694_20111230_194443_revelle.all.mb58.gz 9.68MB Kongsberg multibeam vendor format
0695_20111230_201442_revelle.all.mb58.gz 9.60MB Kongsberg multibeam vendor format
0696_20111230_204446_revelle.all.mb58.gz 9.86MB Kongsberg multibeam vendor format
0697_20111230_211446_revelle.all.mb58.gz 9.84MB Kongsberg multibeam vendor format
0698_20111230_214446_revelle.all.mb58.gz 9.95MB Kongsberg multibeam vendor format
0699_20111230_221449_revelle.all.mb58.gz 9.94MB Kongsberg multibeam vendor format
0700_20111230_224445_revelle.all.mb58.gz 10.01MB Kongsberg multibeam vendor format
0701_20111230_231445_revelle.all.mb58.gz 9.92MB Kongsberg multibeam vendor format
0702_20111230_234439_revelle.all.mb58.gz 10.03MB Kongsberg multibeam vendor format
0703_20111231_001438_revelle.all.mb58.gz 10.07MB Kongsberg multibeam vendor format
0704_20111231_004448_revelle.all.mb58.gz 9.55MB Kongsberg multibeam vendor format
0705_20111231_011453_revelle.all.mb58.gz 9.37MB Kongsberg multibeam vendor format
0706_20111231_014447_revelle.all.mb58.gz 9.30MB Kongsberg multibeam vendor format
0707_20111231_021450_revelle.all.mb58.gz 9.21MB Kongsberg multibeam vendor format
0708_20111231_024443_revelle.all.mb58.gz 9.41MB Kongsberg multibeam vendor format
0709_20111231_031442_revelle.all.mb58.gz 9.28MB Kongsberg multibeam vendor format
0710_20111231_034436_revelle.all.mb58.gz 9.36MB Kongsberg multibeam vendor format
0711_20111231_041442_revelle.all.mb58.gz 9.53MB Kongsberg multibeam vendor format
0712_20111231_044452_revelle.all.mb58.gz 9.35MB Kongsberg multibeam vendor format
0713_20111231_051438_revelle.all.mb58.gz 10.38MB Kongsberg multibeam vendor format
0714_20111231_054441_revelle.all.mb58.gz 10.25MB Kongsberg multibeam vendor format
0715_20111231_061448_revelle.all.mb58.gz 10.04MB Kongsberg multibeam vendor format
0716_20111231_064438_revelle.all.mb58.gz 9.58MB Kongsberg multibeam vendor format
0717_20111231_071441_revelle.all.mb58.gz 9.44MB Kongsberg multibeam vendor format
0718_20111231_074445_revelle.all.mb58.gz 9.84MB Kongsberg multibeam vendor format
0719_20111231_081446_revelle.all.mb58.gz 10.28MB Kongsberg multibeam vendor format
0720_20111231_084446_revelle.all.mb58.gz 9.54MB Kongsberg multibeam vendor format
0721_20111231_091446_revelle.all.mb58.gz 10.02MB Kongsberg multibeam vendor format
0722_20111231_094446_revelle.all.mb58.gz 10.41MB Kongsberg multibeam vendor format
0723_20111231_101452_revelle.all.mb58.gz 9.59MB Kongsberg multibeam vendor format
0724_20111231_104444_revelle.all.mb58.gz 9.24MB Kongsberg multibeam vendor format
0725_20111231_111440_revelle.all.mb58.gz 7.69MB Kongsberg multibeam vendor format
0726_20111231_120235_revelle.all.mb58.gz 9.22MB Kongsberg multibeam vendor format
0727_20111231_123254_revelle.all.mb58.gz 9.29MB Kongsberg multibeam vendor format
0728_20111231_130248_revelle.all.mb58.gz 9.37MB Kongsberg multibeam vendor format
0729_20111231_133243_revelle.all.mb58.gz 9.29MB Kongsberg multibeam vendor format
0730_20111231_140248_revelle.all.mb58.gz 9.30MB Kongsberg multibeam vendor format
0731_20111231_143238_revelle.all.mb58.gz 9.11MB Kongsberg multibeam vendor format
0732_20111231_150247_revelle.all.mb58.gz 9.23MB Kongsberg multibeam vendor format
0733_20111231_153254_revelle.all.mb58.gz 9.00MB Kongsberg multibeam vendor format
0734_20111231_160251_revelle.all.mb58.gz 8.94MB Kongsberg multibeam vendor format
0735_20111231_163236_revelle.all.mb58.gz 9.13MB Kongsberg multibeam vendor format
0736_20111231_170250_revelle.all.mb58.gz 8.99MB Kongsberg multibeam vendor format
0737_20111231_173236_revelle.all.mb58.gz 9.25MB Kongsberg multibeam vendor format
0738_20111231_180244_revelle.all.mb58.gz 9.34MB Kongsberg multibeam vendor format
0739_20111231_183247_revelle.all.mb58.gz 9.13MB Kongsberg multibeam vendor format
0740_20111231_190241_revelle.all.mb58.gz 9.19MB Kongsberg multibeam vendor format
0741_20111231_193237_revelle.all.mb58.gz 9.26MB Kongsberg multibeam vendor format
0742_20111231_200244_revelle.all.mb58.gz 9.04MB Kongsberg multibeam vendor format
0743_20111231_203237_revelle.all.mb58.gz 9.05MB Kongsberg multibeam vendor format
0744_20111231_210241_revelle.all.mb58.gz 9.01MB Kongsberg multibeam vendor format
0745_20111231_213237_revelle.all.mb58.gz 8.87MB Kongsberg multibeam vendor format
0746_20111231_220251_revelle.all.mb58.gz 8.67MB Kongsberg multibeam vendor format
0747_20111231_223238_revelle.all.mb58.gz 9.06MB Kongsberg multibeam vendor format
0748_20111231_230254_revelle.all.mb58.gz 8.91MB Kongsberg multibeam vendor format
0749_20111231_233243_revelle.all.mb58.gz 8.93MB Kongsberg multibeam vendor format
0750_20120101_000236_revelle.all.mb58.gz 9.22MB Kongsberg multibeam vendor format
0751_20120101_003241_revelle.all.mb58.gz 9.35MB Kongsberg multibeam vendor format
0752_20120101_010236_revelle.all.mb58.gz 9.49MB Kongsberg multibeam vendor format
0753_20120101_013254_revelle.all.mb58.gz 9.34MB Kongsberg multibeam vendor format
0754_20120101_020240_revelle.all.mb58.gz 9.41MB Kongsberg multibeam vendor format
0755_20120101_023251_revelle.all.mb58.gz 9.48MB Kongsberg multibeam vendor format
0756_20120101_030246_revelle.all.mb58.gz 9.46MB Kongsberg multibeam vendor format
0757_20120101_033247_revelle.all.mb58.gz 9.66MB Kongsberg multibeam vendor format
0758_20120101_040253_revelle.all.mb58.gz 9.21MB Kongsberg multibeam vendor format
0759_20120101_043249_revelle.all.mb58.gz 8.96MB Kongsberg multibeam vendor format
0760_20120101_050253_revelle.all.mb58.gz 10.02MB Kongsberg multibeam vendor format
0761_20120101_053243_revelle.all.mb58.gz 9.91MB Kongsberg multibeam vendor format
0762_20120101_060245_revelle.all.mb58.gz 9.94MB Kongsberg multibeam vendor format
0763_20120101_063241_revelle.all.mb58.gz 9.91MB Kongsberg multibeam vendor format
0764_20120101_070248_revelle.all.mb58.gz 9.87MB Kongsberg multibeam vendor format
0765_20120101_073237_revelle.all.mb58.gz 9.87MB Kongsberg multibeam vendor format
0766_20120101_080244_revelle.all.mb58.gz 9.70MB Kongsberg multibeam vendor format
0767_20120101_083245_revelle.all.mb58.gz 9.89MB Kongsberg multibeam vendor format
0768_20120101_090235_revelle.all.mb58.gz 9.94MB Kongsberg multibeam vendor format
0769_20120101_093234_revelle.all.mb58.gz 10.07MB Kongsberg multibeam vendor format
0770_20120101_100240_revelle.all.mb58.gz 9.90MB Kongsberg multibeam vendor format
0771_20120101_103235_revelle.all.mb58.gz 9.96MB Kongsberg multibeam vendor format
0772_20120101_110234_revelle.all.mb58.gz 10.12MB Kongsberg multibeam vendor format
0773_20120101_113246_revelle.all.mb58.gz 9.97MB Kongsberg multibeam vendor format
0774_20120101_120235_revelle.all.mb58.gz 10.02MB Kongsberg multibeam vendor format
0775_20120101_123243_revelle.all.mb58.gz 9.95MB Kongsberg multibeam vendor format
0776_20120101_130237_revelle.all.mb58.gz 9.97MB Kongsberg multibeam vendor format
0777_20120101_133240_revelle.all.mb58.gz 9.57MB Kongsberg multibeam vendor format
0778_20120101_140235_revelle.all.mb58.gz 9.89MB Kongsberg multibeam vendor format
0779_20120101_143247_revelle.all.mb58.gz 9.98MB Kongsberg multibeam vendor format
0780_20120101_150240_revelle.all.mb58.gz 9.93MB Kongsberg multibeam vendor format
0781_20120101_153237_revelle.all.mb58.gz 10.01MB Kongsberg multibeam vendor format
0782_20120101_160239_revelle.all.mb58.gz 10.07MB Kongsberg multibeam vendor format
0783_20120101_163243_revelle.all.mb58.gz 10.15MB Kongsberg multibeam vendor format
0784_20120101_170234_revelle.all.mb58.gz 10.31MB Kongsberg multibeam vendor format
0785_20120101_173240_revelle.all.mb58.gz 10.18MB Kongsberg multibeam vendor format
0786_20120101_180244_revelle.all.mb58.gz 10.17MB Kongsberg multibeam vendor format
0787_20120101_183247_revelle.all.mb58.gz 10.20MB Kongsberg multibeam vendor format
0788_20120101_190242_revelle.all.mb58.gz 10.26MB Kongsberg multibeam vendor format
0789_20120101_193245_revelle.all.mb58.gz 10.28MB Kongsberg multibeam vendor format
0790_20120101_200239_revelle.all.mb58.gz 10.21MB Kongsberg multibeam vendor format
0791_20120101_203237_revelle.all.mb58.gz 10.28MB Kongsberg multibeam vendor format
0792_20120101_210235_revelle.all.mb58.gz 10.35MB Kongsberg multibeam vendor format
0793_20120101_213237_revelle.all.mb58.gz 10.50MB Kongsberg multibeam vendor format
0794_20120101_220244_revelle.all.mb58.gz 10.39MB Kongsberg multibeam vendor format
0795_20120101_223235_revelle.all.mb58.gz 10.28MB Kongsberg multibeam vendor format
0796_20120101_230235_revelle.all.mb58.gz 10.14MB Kongsberg multibeam vendor format
0797_20120101_233233_revelle.all.mb58.gz 10.32MB Kongsberg multibeam vendor format
0798_20120102_000243_revelle.all.mb58.gz 10.40MB Kongsberg multibeam vendor format
0799_20120102_003236_revelle.all.mb58.gz 10.54MB Kongsberg multibeam vendor format
0800_20120102_010244_revelle.all.mb58.gz 10.52MB Kongsberg multibeam vendor format
0801_20120102_013239_revelle.all.mb58.gz 10.48MB Kongsberg multibeam vendor format
0802_20120102_020237_revelle.all.mb58.gz 10.35MB Kongsberg multibeam vendor format
0803_20120102_023235_revelle.all.mb58.gz 10.51MB Kongsberg multibeam vendor format
0804_20120102_030242_revelle.all.mb58.gz 10.68MB Kongsberg multibeam vendor format
0805_20120102_033236_revelle.all.mb58.gz 10.77MB Kongsberg multibeam vendor format
0806_20120102_040243_revelle.all.mb58.gz 10.93MB Kongsberg multibeam vendor format
0807_20120102_043233_revelle.all.mb58.gz 11.14MB Kongsberg multibeam vendor format
0808_20120102_050238_revelle.all.mb58.gz 11.22MB Kongsberg multibeam vendor format
0809_20120102_053239_revelle.all.mb58.gz 11.33MB Kongsberg multibeam vendor format
0810_20120102_060237_revelle.all.mb58.gz 11.25MB Kongsberg multibeam vendor format
0811_20120102_063233_revelle.all.mb58.gz 11.07MB Kongsberg multibeam vendor format
0812_20120102_070237_revelle.all.mb58.gz 11.21MB Kongsberg multibeam vendor format
0813_20120102_073237_revelle.all.mb58.gz 11.44MB Kongsberg multibeam vendor format
0814_20120102_080241_revelle.all.mb58.gz 11.41MB Kongsberg multibeam vendor format
0815_20120102_083238_revelle.all.mb58.gz 11.65MB Kongsberg multibeam vendor format
0816_20120102_090237_revelle.all.mb58.gz 11.63MB Kongsberg multibeam vendor format
0817_20120102_093237_revelle.all.mb58.gz 11.80MB Kongsberg multibeam vendor format
0818_20120102_100240_revelle.all.mb58.gz 12.65MB Kongsberg multibeam vendor format
0819_20120102_103234_revelle.all.mb58.gz 17.34MB Kongsberg multibeam vendor format
0820_20120102_110235_revelle.all.mb58.gz 17.28MB Kongsberg multibeam vendor format
0821_20120102_113240_revelle.all.mb58.gz 17.86MB Kongsberg multibeam vendor format
0822_20120102_120236_revelle.all.mb58.gz 17.58MB Kongsberg multibeam vendor format
0823_20120102_123234_revelle.all.mb58.gz 17.41MB Kongsberg multibeam vendor format
0824_20120102_130237_revelle.all.mb58.gz 14.77MB Kongsberg multibeam vendor format
0825_20120102_133236_revelle.all.mb58.gz 11.92MB Kongsberg multibeam vendor format
0826_20120102_140235_revelle.all.mb58.gz 11.66MB Kongsberg multibeam vendor format
0827_20120102_143234_revelle.all.mb58.gz 11.61MB Kongsberg multibeam vendor format
0828_20120102_150243_revelle.all.mb58.gz 11.60MB Kongsberg multibeam vendor format
0829_20120102_153233_revelle.all.mb58.gz 11.58MB Kongsberg multibeam vendor format
0830_20120102_160234_revelle.all.mb58.gz 11.85MB Kongsberg multibeam vendor format
0831_20120102_163237_revelle.all.mb58.gz 6.75MB Kongsberg multibeam vendor format
0832_20120102_170246_revelle.all.mb58.gz 5.12MB Kongsberg multibeam vendor format
0833_20120102_173234_revelle.all.mb58.gz 5.12MB Kongsberg multibeam vendor format
0834_20120102_180235_revelle.all.mb58.gz 4.60MB Kongsberg multibeam vendor format

Metadata Files: 2

Files File Size Description
RR1117_Multibeam.xml NGDC created ISO metadata
xbt_bag_info.tar.gz 1.3KB Additional cruise information

Ancillary Files: 1

Files File Size Description
xbt.tar.gz 134.5KB Expendable Bathythermograph (XBT) data